RH
18 15 10 7 5 5 4 3 4 4 3 3 2 2 2 2 2 2 2 2 1 2 2 2 3 4 4 7 8 9 9 7 8 8 8 11 21 99 100 92 70 74 69 70 69 100 95
20 15 10 6 5 6 4 4 3 3 3 2 2 2 2 2 2 2 1 1 1 1 1 2 2 3 4 6 7 9 8 6 8 9 9 9 12 90 100 97 72 99 96 70 90 100 100
17 17 11 7 6 6 4 4 4 3 2 2 2 3 2 2 2 2 1 1 1 1 1 1 2 3 4 5 6 7 8 7 8 9 9 9 10 23 100 100 91 98 78 97 93 100 100
18 17 10 7 6 6 4 4 3 3 2 2 2 3 2 2 2 2 1 1 1 1 1 1 2 3 4 5 6 7 8 8 9 9 9 9 9 11 91 100 100 100 94 93 92 100 100
20 16 12 9 6 6 5 4 4 3 2 2 3 3 2 2 2 2 1 1 1 1 1 1 2 2 3 5 9 8 9 9 10 9 8 8 9 10 17 100 100 100 100 95 96 100 100
20 17 13 10 7 7 5 4 4 3 3 3 3 3 2 2 2 2 1 1 1 1 1 1 2 3 4 6 9 11 9 10 11 9 9 9 9 9 11 52 100 100 100 100 97 100 100
24 14 15 11 8 6 6 4 3 3 3 3 3 3 3 3 3 2 1 1 1 1 1 1 2 3 4 5 8 13 10 11 11 10 10 10 10 9 11 15 94 100 100 100 100 100 99
20 22 17 10 8 7 7 5 4 4 3 3 3 3 3 3 3 3 2 2 2 2 2 2 2 3 4 5 7 12 13 13 13 13 11 11 11 10 9 11 15 96 100 100 100 100 100
24 25 24 14 9 6 6 6 4 4 4 4 3 4 3 3 3 4 2 2 2 2 2 3 3 4 6 7 11 13 16 17 16 16 14 13 12 10 10 10 12 30 100 100 100 100 100
22 24 32 15 11 7 7 5 5 4 5 5 4 4 4 3 4 4 3 2 2 3 3 3 4 4 6 9 13 17 19 21 19 18 17 14 12 11 11 11 12 16 68 100 100 100 100
30 29 24 21 13 9 7 6 5 5 5 5 5 4 5 4 4 5 6 3 2 4 5 4 5 7 8 10 13 17 19 18 16 18 16 14 13 12 12 12 11 17 20 87 100 100 100
29 32 31 33 17 10 6 7 6 6 6 6 7 6 6 5 5 4 8 4 5 6 7 6 7 8 9 12 13 14 21 22 18 17 16 15 14 12 12 12 11 14 22 25 69 100 100
34 31 38 37 19 11 7 7 7 7 6 7 8 8 7 6 6 5 8 7 8 13 10 10 10 10 10 12 12 11 16 19 17 16 15 14 12 13 13 12 13 13 17 26 28 68 100
23 32 29 35 28 11 7 7 7 7 7 8 8 9 8 7 6 7 9 11 11 15 15 14 16 17 19 20 20 20 20 19 16 14 15 14 13 12 12 13 14 15 14 17 27 35 66
21 31 36 24 26 18 8 6 7 8 8 8 8 8 10 9 7 8 11 10 17 15 18 19 21 20 24 31 33 29 27 26 23 19 18 16 15 15 14 13 14 15 15 17 23 43 56
25 36 36 26 22 18 11 7 7 8 7 8 8 9 11 10 8 7 9 12 20 23 20 19 19 24 27 30 26 27 29 26 24 24 21 19 20 17 16 17 18 18 19 19 20 39 72
31 34 39 40 31 24 14 8 8 7 7 7 8 8 11 12 10 8 9 10 16 28 31 26 24 24 25 27 33 34 33 31 27 24 24 25 21 20 25 22 24 24 26 30 42 36 62
28 30 33 26 31 19 18 10 8 7 7 7 8 8 10 13 12 10 9 10 16 23 30 34 39 32 27 23 22 24 30 37 40 36 29 29 30 32 34 38 35 31 30 33 45 59 55
28 24 30 26 26 30 23 12 8 7 7 6 7 7 8 11 12 11 10 11 13 21 32 38 41 49 58 56 52 42 36 33 31 38 38 39 29 34 37 54 64 57 48 47 44 49 57
23 21 28 29 42 38 28 15 8 7 7 6 6 7 6 9 11 12 10 10 13 16 27 40 47 48 53 60 76 92 88 66 62 51 45 43 31 30 27 34 41 63 72 52 50 58 52
28 25 28 28 29 32 21 14 9 7 6 6 5 6 6 7 10 12 11 10 12 15 18 34 50 64 64 66 65 71 72 82 86 88 80 66 49 39 32 30 36 43 60 76 77 65 66
19 22 36 36 23 29 30 14 9 7 7 6 6 6 6 6 8 11 12 11 10 15 17 20 38 49 67 68 68 71 74 75 71 76 76 80 69 61 51 49 40 44 50 66 75 82 77
20 23 33 35 26 31 45 14 9 7 6 6 6 6 7 5 6 9 12 12 12 12 14 17 20 33 58 69 78 78 78 73 67 61 67 78 80 75 63 58 57 58 48 54 70 75 86
19 22 29 34 30 38 27 13 9 7 6 6 6 6 6 6 5 6 9 12 12 12 14 15 18 20 28 55 81 86 78 70 65 63 56 46 61 73 82 88 84 60 67 66 62 70 71
22 24 24 24 20 21 17 12 7 6 5 6 5 5 6 6 5 6 7 10 11 11 13 15 16 18 20 24 38 67 81 65 61 64 65 56 37 53 76 91 92 92 83 78 78 82 82
24 19 17 18 24 20 20 14 7 6 5 5 5 5 6 6 6 6 7 10 11 11 11 13 15 19 18 20 23 29 59 76 58 65 74 76 52 36 52 82 98 99 95 82 78 86 87
26 24 18 19 16 22 18 12 7 6 5 5 5 5 6 6 6 6 6 8 11 12 12 11 14 16 21 21 23 25 33 69 67 61 73 91 92 64 50 59 69 81 96 99 96 92 93
25 20 12 12 20 13 12 10 7 5 5 4 4 5 6 6 6 6 6 8 10 13 13 15 16 18 19 22 24 28 26 39 72 66 70 80 88 93 98 68 57 57 77 96 98 98 96
34 22 15 19 16 12 11 8 6 5 4 4 4 5 6 6 6 6 6 8 10 12 13 16 19 24 28 23 22 23 28 28 40 76 75 79 83 86 95 100 84 63 69 78 95 100 100
Wind_Speed
80 85 90 91 91 93 93 90 89 94 91 87 84 82 77 76 72 64 55 48 39 35 36 42 47 61 74 87 89 88 95 94 99 108 113 122 129 133 129 124 120 113 111 108 101 101 101
83 87 90 92 93 95 94 92 89 95 92 89 86 85 81 79 74 62 52 43 35 29 31 34 39 51 66 79 90 91 93 92 96 104 112 118 125 134 134 129 122 116 113 110 107 107 103
84 90 95 94 94 95 94 93 91 95 93 90 90 87 84 80 75 63 50 38 30 25 27 29 32 42 59 74 83 91 94 91 93 101 108 115 123 132 134 132 125 121 117 114 111 110 106
86 94 95 97 96 96 95 94 93 95 93 91 91 89 86 83 77 65 51 43 30 21 22 25 30 38 54 64 75 90 95 94 91 99 105 111 118 126 135 133 129 123 121 117 114 113 108
89 95 98 97 98 97 96 95 97 96 94 91 92 89 86 83 78 64 52 43 31 18 14 23 31 36 45 56 71 86 95 92 91 96 100 105 110 117 130 133 132 128 121 119 118 114 110
92 97 97 99 99 98 97 98 99 99 95 91 91 90 87 82 77 63 54 42 27 15 6 18 27 33 45 59 68 79 87 89 91 90 95 99 104 111 118 133 129 124 121 121 119 116 110
92 97 100 100 100 99 99 100 99 99 96 91 91 90 85 82 77 64 52 39 26 18 6 12 26 34 47 56 63 74 79 83 87 84 88 93 97 103 110 116 131 127 126 122 123 117 113
93 97 103 102 99 99 99 102 99 98 96 93 91 91 85 81 77 65 52 37 27 23 12 7 20 26 36 48 58 64 68 76 79 80 82 86 89 95 103 113 121 130 124 121 122 118 116
94 98 102 104 103 99 100 102 99 96 93 93 91 91 87 82 79 68 54 37 27 28 16 9 17 24 34 45 51 55 61 67 72 73 77 81 84 85 89 103 109 120 127 122 122 118 117
94 99 104 106 105 104 101 100 97 94 90 91 90 89 87 82 79 72 56 41 29 32 22 10 14 19 28 39 48 55 60 63 66 69 72 74 79 79 82 94 104 112 123 125 121 121 119
95 98 102 107 105 106 103 100 96 92 87 88 89 87 85 81 77 70 58 42 33 35 26 16 15 19 27 37 42 50 56 61 64 66 67 67 70 72 74 83 94 107 113 122 124 121 120
94 94 100 106 105 106 103 99 94 88 85 84 85 86 83 78 74 69 62 43 40 36 27 21 13 18 23 34 43 47 48 51 54 59 60 61 66 68 68 74 82 96 107 112 119 121 119
92 92 98 103 103 104 100 95 90 86 82 81 81 81 80 74 71 68 62 49 46 42 31 24 18 12 17 22 27 34 44 50 50 50 51 54 60 61 64 68 75 88 99 106 110 117 118
87 93 96 98 98 100 98 92 87 83 80 78 77 75 74 71 67 64 60 52 45 36 34 26 22 19 14 13 16 22 25 27 32 33 37 44 48 53 57 60 69 79 90 98 103 106 107
85 92 101 94 94 97 95 92 85 81 77 76 73 72 69 66 62 58 54 48 41 34 28 24 20 15 15 14 14 14 16 18 21 23 28 33 38 44 49 54 62 70 79 87 93 98 100
85 90 97 95 92 92 95 92 86 79 75 73 72 66 65 63 59 54 49 44 36 31 25 20 15 14 10 8 7 11 14 17 19 22 23 26 31 35 40 47 55 63 72 79 87 92 96
81 87 94 96 93 93 93 91 87 79 74 70 68 64 59 56 55 51 47 40 34 27 24 16 11 7 6 9 12 12 12 13 15 17 18 20 23 28 34 42 49 56 64 73 82 87 93
79 86 91 89 97 90 91 89 86 79 72 70 64 61 56 52 49 47 44 40 33 28 22 20 13 6 5 1 6 12 14 16 16 17 18 20 21 24 29 33 42 51 60 68 74 79 84
82 85 88 88 93 100 96 88 84 78 71 68 64 58 53 48 44 42 40 36 31 25 18 14 13 10 7 2 3 5 9 13 17 19 20 20 22 24 28 33 38 43 53 60 67 74 78
81 84 93 87 100 99 97 90 82 78 70 66 64 58 52 47 42 37 36 34 28 25 18 13 8 6 6 8 8 4 3 9 12 15 19 21 24 25 27 33 40 47 50 55 62 64 70
82 87 88 89 91 99 95 87 83 77 71 65 61 58 52 45 41 36 32 29 27 22 19 14 10 5 4 2 3 4 6 8 10 13 17 20 22 24 26 29 34 43 50 52 54 61 59
81 85 90 89 86 98 101 89 81 75 68 65 60 57 53 45 39 35 33 29 26 21 19 16 14 12 10 9 9 10 8 10 14 15 15 16 19 23 25 26 32 36 45 50 52 54 60
87 88 87 84 85 92 101 85 78 74 66 63 60 59 53 48 40 34 30 29 27 24 19 16 16 16 15 15 14 14 14 14 13 14 17 21 21 20 22 24 26 30 37 43 48 51 53
86 89 93 89 88 95 92 83 75 72 65 61 59 57 53 49 43 37 30 25 26 25 21 18 16 16 17 19 19 17 17 16 16 16 17 19 23 24 23 22 24 29 32 35 39 40 44
90 94 96 90 93 91 86 83 73 71 64 60 57 53 50 49 44 38 34 28 23 23 23 20 17 16 17 18 20 21 19 19 18 16 15 16 19 23 26 26 27 27 29 34 37 40 41
96 98 95 90 92 90 87 87 75 69 62 57 56 51 48 47 45 39 35 33 29 24 21 20 18 18 18 18 18 20 21 20 21 18 15 15 16 20 24 28 29 30 29 29 35 37 40
98 100 97 90 95 94 85 86 74 67 63 58 55 51 47 45 45 40 36 34 32 29 26 22 20 18 17 18 19 19 21 22 23 22 19 17 15 15 21 26 30 31 31 30 30 37 36
100 100 93 97 97 88 86 82 73 65 62 58 54 49 47 45 44 40 37 34 33 30 29 26 24 22 20 18 18 20 21 24 25 26 26 24 22 18 16 19 22 27 30 31 33 35 36
109 102 96 96 95 94 88 80 71 63 59 56 53 49 47 46 46 42 38 36 34 32 29 29 26 25 26 23 21 21 23 25 28 29 30 30 28 26 23 20 20 18 23 28 34 37 39
Wind_Direction
341 341 343 341 341 342 341 342 345 342 343 344 345 343 342 340 337 332 324 314 300 284 263 246 235 224 219 217 216 216 216 214 212 212 212 211 211 212 213 213 213 212 214 217 219 222 226
341 342 342 342 342 342 341 342 345 344 345 346 348 347 347 346 343 340 331 319 306 288 266 248 234 222 217 214 216 214 217 214 211 213 211 211 211 210 212 213 213 213 215 216 219 223 225
340 342 343 341 342 342 342 343 347 345 348 349 352 350 351 350 348 345 338 331 315 291 263 245 228 216 212 212 212 213 215 215 210 212 212 212 211 211 212 213 213 213 214 217 218 223 225
340 343 342 341 343 343 344 345 347 348 349 351 354 354 354 352 352 349 345 342 328 297 259 238 219 210 209 207 208 211 213 214 211 212 212 212 211 212 210 213 213 213 216 217 219 221 224
340 343 342 342 343 343 345 347 348 349 350 353 356 357 356 357 356 353 352 347 336 311 258 224 211 206 202 201 203 208 212 213 213 213 212 213 213 213 212 211 214 213 216 218 220 222 223
341 343 341 342 344 344 346 348 349 349 351 354 357 359 359 360 359 357 356 353 348 340 284 216 202 196 193 194 199 205 210 210 214 214 213 213 214 213 214 213 213 215 215 220 220 222 224
342 343 343 342 344 345 347 349 351 350 351 354 358 1 1 3 2 1 0 358 1 26 15 189 191 190 191 192 194 202 206 208 213 215 213 214 214 214 214 215 213 214 216 219 221 222 224
343 345 343 343 342 346 348 350 352 351 351 353 358 0 3 6 6 7 6 6 21 36 39 163 190 191 190 191 193 197 202 207 211 212 215 215 215 215 214 215 215 214 216 218 224 223 224
343 342 343 342 343 347 349 351 352 352 352 353 357 360 4 7 9 10 11 14 31 48 55 124 165 173 182 186 188 193 200 206 209 211 214 214 216 216 215 217 216 215 215 218 223 225 225
344 343 342 344 343 345 350 351 353 352 353 353 355 360 3 7 10 14 15 21 40 52 51 81 143 161 173 179 180 188 194 199 205 209 213 214 215 215 215 216 215 215 216 218 221 226 227
341 343 346 345 343 344 349 351 353 352 353 353 354 358 3 6 10 14 18 27 37 58 52 78 120 143 165 175 181 189 195 201 204 207 211 214 215 215 215 216 215 215 217 218 220 226 228
342 345 347 346 342 344 348 352 352 353 353 353 353 356 1 5 8 12 18 25 42 45 54 62 97 139 162 176 185 191 195 203 208 208 210 212 214 216 215 216 216 215 217 219 221 224 228
342 345 346 348 343 343 346 350 352 353 353 354 353 354 357 3 7 10 17 19 40 42 44 66 75 118 163 184 195 199 199 204 208 209 211 215 215 214 215 215 214 214 216 219 221 223 227
342 346 346 348 346 342 344 349 352 353 353 353 352 353 355 360 5 7 16 16 37 42 48 56 72 85 105 150 181 197 205 217 218 215 215 217 217 217 217 216 215 215 216 219 222 224 227
345 346 347 346 347 343 342 346 349 351 352 351 351 350 353 357 1 7 15 12 31 36 48 55 59 76 112 144 170 190 205 218 220 222 221 222 221 217 219 217 216 217 218 220 221 224 225
346 345 348 350 350 344 341 342 346 349 350 350 348 348 350 353 357 2 9 11 26 36 39 48 64 86 101 143 173 186 201 213 216 217 219 215 217 221 218 217 217 218 219 221 222 221 224
346 345 351 351 352 347 341 340 344 345 347 348 346 346 347 351 352 357 2 7 17 33 45 52 48 59 121 158 176 196 208 220 225 221 219 222 217 209 217 217 215 218 220 221 222 223 223
341 345 347 352 354 346 342 339 341 342 345 344 346 344 344 346 350 351 354 360 5 15 30 52 66 39 22 1 198 192 201 210 222 230 227 222 218 220 213 213 218 219 220 222 224 226 226
339 342 349 353 354 352 345 338 338 339 341 341 341 342 340 342 347 346 348 351 357 4 11 34 60 83 81 57 297 262 245 237 225 224 228 228 228 217 212 213 214 216 219 221 225 227 228
339 342 348 349 353 352 346 339 335 335 338 339 338 338 337 337 340 343 343 344 346 348 353 356 14 40 94 123 123 122 276 260 251 242 238 233 230 228 218 214 211 214 215 219 221 224 227
337 343 348 350 352 350 347 339 333 333 333 335 335 334 336 332 333 337 338 337 337 337 335 333 323 314 314 288 224 207 214 213 227 236 241 243 240 232 228 222 218 213 213 217 219 223 227
336 341 344 348 349 351 345 337 330 329 329 330 332 330 331 330 329 331 331 331 329 326 325 318 300 284 267 249 258 260 263 244 229 230 231 234 236 236 233 226 219 219 213 214 218 222 224
338 338 341 347 349 350 345 336 328 326 326 325 327 326 326 326 324 325 326 324 322 320 317 311 304 293 277 267 261 260 267 261 241 233 234 234 232 232 233 231 227 223 220 219 220 222 224
335 338 339 341 348 347 343 335 328 323 323 322 323 322 321 319 319 319 318 317 315 312 308 305 299 294 284 271 265 259 255 247 242 239 239 235 231 229 227 229 228 227 226 227 227 226 226
334 333 338 347 345 346 341 332 324 321 320 320 320 318 316 313 314 314 313 311 309 305 301 298 294 289 281 272 266 261 262 251 239 236 237 244 237 228 223 222 226 229 230 229 230 231 229
332 334 337 341 341 345 339 333 326 322 319 317 315 313 311 309 308 308 308 307 306 302 294 289 288 284 282 278 272 264 261 260 246 234 232 235 237 230 224 221 224 228 232 233 229 229 232
327 328 333 338 344 344 338 332 324 320 317 315 312 308 305 304 302 303 303 301 300 301 299 293 290 279 270 274 273 265 260 258 252 243 228 224 229 229 222 221 223 225 228 231 229 227 228
327 330 332 341 337 339 336 329 323 319 316 314 309 307 302 298 297 296 297 298 295 294 292 291 288 284 277 270 265 264 258 256 257 249 238 226 223 220 228 230 224 223 224 225 226 224 220
321 327 331 337 338 338 332 328 322 319 317 313 309 302 298 293 289 289 291 291 289 286 285 285 283 280 277 276 269 260 254 254 250 250 242 235 229 224 223 231 238 229 223 223 223 221 218